Temp
12 12 13 14 10 8 10 11 11 14 14 16 16 16 16 17 18 16 16 17 18 18 17 16 16 17 17 17 17 17 17 17 17 17 17 17 17 17 18 17 17 16 16 15 15 15 15 15 15
12 13 13 13 8 10 10 10 12 14 15 15 16 16 16 15 15 16 16 17 18 18 17 16 16 17 17 16 17 17 17 17 17 17 17 17 17 17 18 18 17 16 16 16 15 15 15 16 15
12 13 13 8 7 9 11 10 12 14 15 15 16 16 16 15 15 16 16 17 17 17 16 16 16 16 17 18 17 17 17 17 17 17 17 17 17 17 18 17 15 15 15 15 15 15 15 15 15
12 13 11 8 8 9 11 11 11 13 15 15 15 15 15 15 15 16 17 16 16 16 16 16 16 16 17 17 17 17 17 17 17 17 17 17 17 17 18 17 16 16 15 15 15 15 15 15 15
12 12 7 7 8 9 10 11 12 13 13 14 15 15 14 14 15 15 16 16 16 16 15 16 16 16 16 16 16 16 17 17 17 17 17 17 16 17 17 16 16 15 15 15 15 16 15 15 15
10 9 6 7 8 9 10 12 13 13 13 14 15 15 14 14 14 15 15 15 16 16 16 16 16 16 16 16 16 16 16 16 16 16 16 16 16 17 16 16 16 16 15 15 15 15 15 15 15
7 5 7 7 8 9 11 12 12 12 12 13 13 13 13 13 13 14 14 15 15 16 16 16 16 16 16 16 16 16 16 16 16 16 16 16 16 17 16 16 15 15 15 15 15 15 15 15 15
9 6 6 6 7 9 10 11 11 11 12 13 13 12 12 13 13 13 14 14 15 15 15 16 16 16 16 16 16 16 15 15 15 15 16 16 16 16 16 16 15 15 15 15 15 15 15 15 16
9 6 5 7 7 9 9 9 10 10 11 12 12 12 12 12 12 13 13 14 14 15 15 15 16 16 16 16 16 16 16 16 15 15 15 15 15 15 15 16 16 15 15 15 15 15 14 15 15
7 4 5 7 8 8 8 8 9 9 10 10 11 12 12 12 12 12 12 13 13 14 14 15 15 16 16 16 16 16 16 16 15 15 15 15 15 15 15 15 15 15 15 15 15 15 15 14 15
6 4 6 8 9 8 8 8 9 9 7 9 10 12 12 11 11 11 12 12 12 12 13 14 15 15 16 16 16 16 17 16 16 15 15 15 15 15 15 14 14 14 14 15 15 15 15 15 15
6 6 7 7 8 7 7 8 8 8 9 9 10 10 10 11 11 12 12 12 12 12 12 12 13 14 15 15 15 16 16 16 16 16 15 15 15 15 14 14 14 14 14 14 15 15 16 15 14
5 6 6 7 7 7 8 6 7 8 8 9 9 10 10 10 11 11 12 12 12 12 12 12 12 12 13 13 14 15 15 16 16 16 15 15 15 14 14 14 15 15 15 14 15 15 16 15 15
5 5 5 6 7 7 6 7 7 8 9 9 9 9 10 10 10 11 11 11 11 12 12 12 12 12 12 12 13 14 14 15 16 16 15 14 14 14 14 15 15 15 15 14 14 15 16 16 15
5 4 4 5 5 6 7 5 4 8 9 8 8 9 9 9 10 10 10 11 12 12 12 13 13 13 12 12 12 12 13 14 14 15 15 14 14 14 14 14 15 15 15 14 14 14 15 15 14
4 3 3 5 5 7 6 6 7 8 8 8 7 7 8 8 9 10 9 10 10 11 11 12 12 12 12 12 12 12 12 13 13 14 14 14 14 14 14 14 14 15 15 14 14 14 15 14 14
0 0 2 2 4 4 5 4 5 7 7 7 7 8 8 9 10 10 10 9 10 10 11 11 11 11 11 11 11 11 11 12 13 13 13 13 13 13 13 14 14 14 15 14 14 14 15 15 13
-1 1 1 1 2 3 3 3 5 6 6 5 6 6 6 6 7 8 9 11 10 10 10 11 11 11 11 11 11 11 11 11 12 12 13 13 13 13 14 14 13 14 14 14 13 14 14 14 14
2 -3 -1 2 3 2 2 3 4 6 6 5 5 6 6 6 6 6 7 8 9 10 10 10 11 10 10 11 11 11 11 11 11 12 13 13 13 12 13 14 13 14 14 14 14 14 14 14 13
2 1 1 2 3 2 3 3 5 5 5 5 6 6 6 6 6 6 6 6 7 8 10 10 10 10 10 11 11 11 11 11 11 11 11 12 12 12 13 13 13 14 14 14 13 14 14 14 13
2 1 1 1 2 2 2 2 4 5 5 7 7 7 7 6 6 6 6 6 7 7 9 10 10 10 11 11 11 11 11 10 11 11 11 12 12 12 12 13 13 13 13 13 13 14 14 14 13
-2 2 2 2 2 1 3 3 3 4 3 4 5 6 6 5 5 5 6 6 6 8 8 8 9 10 11 11 11 11 11 11 11 11 11 11 12 11 12 13 12 12 13 13 13 13 14 14 13
2 3 2 1 2 2 1 2 2 4 4 4 4 5 5 5 4 5 5 6 7 7 7 8 9 9 10 11 11 11 11 11 11 11 11 11 12 12 11 11 13 12 13 13 13 13 13 14 14
4 1 -1 -4 1 -0 0 -1 2 3 4 5 5 4 4 5 6 6 6 6 6 7 7 7 8 9 10 11 11 11 11 11 11 10 10 10 10 12 13 10 11 11 12 12 13 13 13 13 14
2 -2 -2 -1 -4 1 -3 -2 3 4 5 5 4 3 4 4 6 7 7 6 6 6 7 7 8 9 10 10 11 11 11 11 11 10 10 10 10 11 12 12 12 12 11 12 13 13 12 13 13
1 -0 -1 0 -2 -1 -1 1 3 5 7 5 3 3 3 5 7 7 8 8 6 6 7 8 9 9 10 11 11 11 11 10 10 10 10 9 8 10 11 11 12 11 11 12 12 12 12 11 13
2 -0 2 0 -2 -1 -2 1 5 7 5 4 3 2 3 6 8 7 8 9 8 8 9 9 9 10 10 11 11 11 10 10 10 10 8 7 8 9 10 10 10 11 11 12 12 12 13 11 13
3 4 3 1 2 3 3 2 6 4 3 2 2 3 5 6 7 8 8 9 9 9 9 10 10 11 11 11 10 10 9 9 9 8 8 8 9 9 10 11 10 11 11 12 12 12 12 12 12
4 5 4 3 3 5 6 5 4 3 2 2 2 3 5 5 6 8 9 9 10 10 10 10 10 10 10 9 9 9 9 10 9 9 9 8 9 9 10 10 10 11 11 12 12 11 13 13 12
3 4 5 5 5 5 5 5 5 2 1 2 1 3 4 6 7 7 7 8 8 9 9 9 9 9 8 8 8 9 9 10 9 10 10 10 10 11 11 10 11 11 11 11 11 10 11 13 12
Height
1505 1507 1510 1512 1524 1529 1530 1523 1517 1514 1514 1512 1512 1512 1513 1512 1512 1524 1513 1512 1512 1513 1514 1517 1520 1522 1525 1528 1530 1533 1535 1537 1539 1540 1541 1543 1543 1544 1545 1547 1548 1549 1550 1553 1555 1556 1557 1558 1559
1506 1509 1511 1513 1529 1534 1527 1519 1515 1511 1511 1510 1510 1511 1512 1513 1512 1513 1513 1512 1512 1513 1515 1518 1521 1522 1525 1528 1531 1533 1536 1538 1540 1541 1542 1543 1545 1546 1546 1547 1549 1550 1552 1553 1555 1557 1558 1559 1560
1508 1510 1512 1517 1528 1529 1522 1515 1512 1510 1510 1509 1509 1510 1512 1513 1513 1514 1513 1512 1513 1514 1516 1519 1521 1523 1525 1528 1531 1534 1536 1538 1539 1541 1543 1544 1546 1547 1548 1549 1550 1553 1553 1555 1556 1558 1560 1561 1562
1510 1514 1518 1522 1525 1518 1515 1514 1513 1510 1509 1509 1509 1510 1512 1513 1513 1515 1515 1514 1514 1516 1517 1519 1521 1523 1525 1527 1530 1533 1535 1537 1539 1541 1543 1544 1546 1547 1548 1550 1551 1553 1555 1556 1557 1559 1561 1563 1564
1511 1513 1524 1527 1524 1518 1514 1513 1512 1512 1511 1510 1509 1510 1511 1512 1514 1515 1516 1516 1516 1517 1518 1519 1521 1523 1525 1527 1530 1531 1534 1536 1537 1540 1542 1544 1546 1547 1549 1551 1552 1553 1556 1558 1558 1560 1562 1564 1565
1512 1515 1528 1528 1524 1517 1514 1513 1512 1512 1511 1510 1511 1511 1513 1513 1514 1515 1516 1517 1518 1518 1518 1519 1521 1522 1524 1526 1528 1531 1534 1535 1537 1540 1542 1544 1545 1547 1548 1550 1553 1554 1556 1559 1560 1561 1562 1564 1566
1512 1519 1526 1527 1523 1518 1513 1512 1512 1512 1512 1512 1512 1512 1514 1514 1514 1514 1515 1516 1517 1518 1519 1520 1521 1522 1523 1525 1527 1529 1532 1534 1537 1538 1541 1543 1545 1546 1547 1549 1552 1554 1555 1557 1561 1562 1564 1565 1567
1514 1519 1527 1526 1524 1519 1514 1513 1513 1513 1513 1512 1512 1513 1514 1513 1513 1513 1514 1515 1516 1517 1519 1520 1520 1522 1523 1525 1526 1528 1530 1533 1536 1538 1540 1542 1545 1546 1547 1548 1550 1552 1555 1557 1559 1563 1564 1566 1567
1515 1524 1530 1522 1522 1515 1515 1515 1515 1515 1514 1512 1512 1512 1514 1513 1513 1513 1513 1514 1515 1516 1517 1518 1519 1521 1522 1523 1525 1526 1528 1531 1533 1536 1539 1541 1542 1544 1546 1548 1549 1551 1553 1556 1559 1561 1565 1566 1567
1517 1526 1523 1518 1517 1516 1516 1516 1517 1516 1513 1512 1510 1510 1511 1511 1512 1512 1513 1512 1512 1514 1515 1516 1517 1519 1521 1522 1523 1524 1525 1527 1530 1531 1535 1538 1540 1542 1545 1548 1550 1551 1552 1555 1557 1559 1563 1566 1567
1518 1522 1518 1516 1516 1515 1514 1513 1514 1512 1509 1508 1508 1507 1508 1508 1508 1509 1510 1510 1510 1511 1512 1513 1515 1515 1516 1518 1520 1522 1523 1525 1527 1529 1531 1534 1538 1541 1543 1545 1549 1551 1552 1553 1555 1558 1561 1564 1567
1517 1516 1516 1516 1515 1514 1512 1510 1507 1505 1500 1503 1504 1504 1503 1503 1503 1503 1504 1506 1506 1507 1507 1509 1510 1512 1513 1514 1515 1518 1520 1522 1523 1525 1528 1530 1533 1537 1539 1542 1544 1548 1551 1552 1554 1557 1560 1562 1566
1515 1515 1515 1514 1514 1511 1509 1506 1503 1491 1496 1499 1499 1498 1496 1496 1496 1497 1498 1498 1500 1500 1502 1503 1505 1506 1508 1509 1511 1513 1515 1516 1519 1520 1523 1527 1528 1531 1534 1538 1540 1543 1548 1551 1552 1555 1558 1560 1564
1515 1514 1512 1510 1508 1507 1505 1497 1498 1484 1490 1491 1491 1489 1489 1489 1489 1488 1489 1489 1491 1493 1494 1497 1497 1499 1501 1502 1505 1508 1509 1511 1512 1515 1517 1520 1524 1526 1529 1532 1535 1538 1543 1547 1551 1553 1555 1558 1561
1513 1513 1510 1507 1507 1505 1502 1488 1483 1479 1483 1482 1483 1481 1481 1479 1480 1478 1480 1479 1482 1483 1486 1487 1489 1491 1492 1495 1498 1501 1504 1505 1506 1509 1511 1514 1518 1521 1522 1526 1531 1536 1539 1542 1547 1549 1554 1557 1559
1514 1515 1517 1508 1507 1505 1505 1473 1476 1479 1479 1478 1477 1476 1474 1471 1471 1469 1470 1471 1473 1474 1475 1477 1478 1480 1483 1486 1490 1493 1496 1499 1500 1503 1505 1509 1512 1515 1516 1521 1523 1532 1534 1538 1542 1545 1548 1554 1557
1524 1529 1522 1515 1508 1507 1506 1482 1475 1476 1477 1473 1471 1467 1463 1459 1459 1458 1459 1461 1463 1464 1466 1466 1468 1470 1473 1477 1481 1485 1488 1490 1493 1496 1499 1502 1505 1509 1513 1516 1519 1527 1529 1534 1538 1543 1544 1548 1554
1536 1526 1522 1520 1511 1506 1506 1482 1458 1474 1474 1464 1457 1452 1449 1447 1442 1446 1445 1448 1452 1455 1457 1458 1459 1461 1465 1469 1472 1476 1479 1482 1485 1488 1491 1495 1498 1503 1506 1509 1514 1518 1522 1527 1534 1539 1540 1545 1552
1524 1534 1527 1512 1509 1508 1500 1480 1456 1464 1463 1453 1445 1444 1441 1437 1435 1436 1436 1436 1439 1443 1447 1449 1452 1454 1457 1459 1462 1466 1469 1475 1478 1481 1484 1487 1492 1495 1500 1501 1504 1509 1516 1521 1528 1534 1537 1541 1548
1522 1524 1517 1508 1503 1506 1491 1470 1452 1452 1448 1444 1438 1434 1434 1431 1429 1427 1426 1426 1427 1430 1434 1439 1443 1447 1448 1452 1455 1458 1463 1467 1472 1475 1477 1479 1484 1489 1492 1495 1497 1502 1509 1514 1522 1526 1531 1535 1542
1517 1520 1516 1515 1504 1497 1492 1468 1448 1441 1440 1438 1435 1434 1430 1425 1422 1418 1416 1414 1415 1416 1420 1427 1433 1438 1440 1444 1448 1452 1455 1458 1463 1466 1469 1472 1477 1482 1485 1487 1487 1496 1501 1506 1514 1521 1525 1529 1536
1529 1505 1507 1508 1508 1506 1494 1481 1450 1439 1440 1436 1434 1431 1426 1419 1414 1409 1405 1404 1403 1404 1408 1414 1421 1427 1432 1436 1439 1442 1446 1449 1453 1459 1463 1466 1470 1476 1481 1482 1480 1487 1493 1500 1506 1515 1520 1525 1530
1511 1504 1506 1506 1503 1502 1496 1496 1453 1442 1435 1433 1427 1420 1416 1410 1405 1398 1394 1393 1393 1393 1397 1402 1409 1416 1423 1428 1431 1435 1438 1442 1447 1451 1455 1458 1463 1469 1472 1477 1480 1483 1488 1494 1500 1507 1512 1517 1524
1503 1506 1510 1515 1506 1512 1496 1505 1463 1447 1439 1423 1417 1413 1407 1399 1393 1388 1383 1382 1383 1385 1388 1393 1399 1406 1413 1420 1423 1428 1432 1436 1441 1445 1448 1452 1456 1462 1467 1467 1475 1476 1478 1486 1491 1501 1505 1511 1516
1508 1520 1531 1521 1535 1503 1505 1505 1458 1444 1437 1433 1421 1410 1401 1392 1386 1380 1374 1371 1371 1375 1379 1385 1391 1397 1405 1412 1417 1422 1426 1431 1435 1439 1442 1445 1448 1452 1457 1462 1467 1472 1476 1480 1486 1492 1495 1502 1508
1512 1517 1528 1524 1529 1516 1498 1485 1455 1440 1433 1428 1417 1405 1394 1383 1380 1376 1369 1364 1362 1366 1371 1377 1384 1391 1397 1404 1410 1415 1420 1425 1430 1433 1436 1437 1440 1444 1450 1456 1460 1464 1469 1471 1478 1484 1490 1491 1501
1508 1519 1508 1513 1522 1518 1501 1473 1444 1437 1430 1419 1411 1400 1388 1379 1375 1372 1366 1362 1359 1362 1368 1374 1381 1388 1394 1400 1406 1410 1415 1419 1423 1426 1428 1430 1434 1437 1441 1447 1451 1456 1462 1467 1470 1477 1480 1487 1494
1506 1504 1504 1512 1505 1494 1471 1471 1444 1437 1427 1418 1407 1397 1384 1376 1372 1371 1367 1363 1363 1364 1368 1373 1378 1384 1390 1395 1399 1403 1408 1412 1415 1418 1420 1423 1424 1428 1432 1436 1441 1447 1452 1457 1464 1469 1472 1477 1488
1504 1498 1497 1497 1495 1480 1462 1455 1451 1446 1437 1425 1411 1396 1383 1374 1370 1368 1367 1365 1366 1368 1370 1373 1377 1382 1387 1390 1394 1397 1401 1404 1406 1408 1410 1413 1417 1419 1423 1426 1430 1436 1440 1444 1454 1462 1466 1471 1480
1503 1499 1495 1487 1484 1481 1477 1459 1449 1447 1438 1426 1414 1398 1385 1372 1369 1368 1369 1369 1370 1370 1371 1375 1379 1381 1386 1389 1390 1391 1393 1396 1396 1398 1400 1403 1404 1406 1413 1419 1423 1426 1434 1440 1446 1453 1458 1464 1472
Wind_Speed
11 16 16 12 4 4 3 5 1 1 2 2 2 4 3 1 3 3 4 3 3 8 12 14 14 18 19 20 19 20 18 16 14 13 12 11 10 8 5 7 11 15 17 17 13 15 17 15 14
15 16 11 4 4 3 5 3 5 2 3 6 2 4 2 1 2 3 2 3 6 10 13 15 14 16 18 19 18 18 17 16 14 13 13 12 10 8 6 9 12 13 16 17 18 16 16 14 13
15 15 4 4 3 5 4 3 2 4 3 6 3 5 3 2 6 4 7 6 7 10 12 12 13 15 17 18 18 18 17 16 14 13 13 12 10 8 10 14 14 12 20 19 19 17 14 13 12
9 9 4 3 5 4 3 4 3 5 1 7 4 4 5 3 3 9 11 9 5 4 10 12 14 14 15 16 17 18 18 17 15 15 14 13 11 10 13 15 15 17 20 20 19 16 14 13 11
11 4 3 1 3 4 3 3 3 3 4 5 6 1 4 10 13 10 10 11 10 4 6 9 11 14 15 15 15 16 17 18 17 16 16 15 13 14 15 15 16 17 19 18 17 15 14 12 10
4 3 3 3 4 4 4 5 2 1 2 4 2 3 4 11 8 7 5 5 6 6 6 5 8 12 14 16 17 17 16 17 17 17 17 17 16 17 16 15 17 17 19 18 16 15 14 12 10
5 4 2 2 3 3 2 1 2 1 2 2 4 2 3 5 5 4 4 3 2 3 4 4 3 9 10 14 16 17 18 18 18 19 19 19 18 18 19 17 18 18 19 18 16 15 14 12 9
5 4 3 3 3 4 4 3 4 6 1 3 3 2 3 6 7 6 4 4 2 1 1 2 1 2 6 8 10 16 21 20 19 20 20 20 19 20 20 19 20 20 20 19 16 15 14 12 10
5 3 3 3 5 3 3 6 3 6 7 6 3 1 2 3 3 3 6 8 8 8 7 6 5 5 4 4 7 12 16 21 22 21 21 20 22 22 21 20 21 22 21 19 17 16 15 13 10
3 3 7 3 2 3 4 2 7 6 12 15 21 17 12 12 13 11 11 11 10 10 11 11 12 12 11 9 8 7 10 19 25 24 24 25 24 23 23 22 22 23 22 19 18 19 17 15 13
2 4 3 2 6 9 9 14 7 5 7 15 18 25 22 22 21 19 19 18 16 16 15 14 15 17 18 17 16 14 12 12 22 26 27 27 26 25 25 24 24 25 23 22 23 22 18 16 14
1 4 3 3 7 10 6 11 10 20 26 23 26 29 31 29 29 27 27 25 24 23 22 19 19 20 21 23 21 20 19 17 16 22 28 30 29 29 30 28 27 27 26 25 25 22 19 18 16
3 2 5 8 15 16 18 16 15 28 28 25 30 32 32 33 36 35 34 33 30 30 29 27 24 24 23 24 24 24 23 22 21 18 28 32 33 32 33 31 30 29 28 27 27 24 21 21 19
4 7 14 11 18 16 14 21 14 6 8 19 23 28 32 35 38 39 40 40 38 37 36 34 33 30 28 27 25 23 24 22 22 24 22 31 34 36 37 36 34 32 30 28 28 25 23 23 21
6 5 6 4 5 4 11 13 13 30 26 30 33 36 37 38 38 42 42 41 40 40 38 38 38 36 34 32 29 25 23 23 22 25 24 26 34 38 41 40 37 36 32 31 30 27 25 25 24
5 3 4 4 8 4 3 24 10 18 14 22 19 22 30 36 39 40 38 36 37 36 35 33 34 36 35 34 31 30 28 24 24 26 28 26 29 33 40 40 39 40 36 35 33 31 30 29 27
6 3 3 7 5 3 1 19 4 3 18 29 35 41 43 44 48 49 44 39 33 33 32 30 30 31 32 27 29 28 29 28 26 26 30 30 28 31 33 38 43 43 39 38 36 34 32 32 30
3 5 4 6 5 8 14 30 30 25 23 32 38 41 41 42 49 46 47 45 43 36 31 27 25 24 29 31 30 28 26 25 27 26 29 31 30 30 37 41 47 48 44 41 39 36 34 34 31
4 3 7 13 12 7 11 25 32 26 27 32 38 35 37 41 46 42 43 43 42 42 39 33 27 24 22 26 31 32 31 27 29 28 27 31 34 27 32 43 48 50 46 42 42 39 37 36 35
4 6 12 11 7 4 14 26 30 24 18 24 30 32 33 36 37 37 37 39 40 40 42 42 36 30 27 24 25 29 31 31 28 27 25 30 33 34 34 44 50 53 45 40 44 43 41 40 39
5 6 6 9 7 8 12 12 5 5 7 15 20 21 26 28 29 35 33 34 36 37 38 42 40 36 31 27 25 27 30 32 30 29 27 30 32 30 29 48 59 51 44 43 44 45 44 45 43
3 6 9 5 7 5 7 9 5 4 8 6 13 18 29 34 38 38 35 33 35 39 36 37 39 39 35 31 29 29 32 33 34 30 28 28 33 35 38 36 31 42 44 46 47 47 48 47 49
8 3 6 4 9 5 2 4 9 3 7 8 16 29 30 30 35 35 32 32 33 35 35 34 35 37 36 34 32 31 31 33 32 31 29 28 31 41 41 45 35 42 44 47 47 51 52 51 52
7 4 4 3 0 3 4 5 7 4 6 20 26 34 35 36 34 34 32 31 31 30 30 30 32 36 35 35 36 37 34 34 35 35 33 30 33 42 49 44 44 34 53 48 47 48 55 54 53
7 5 4 5 3 4 2 1 12 13 10 20 24 33 35 35 32 32 32 30 31 34 34 29 28 31 33 34 35 35 34 33 34 35 35 36 38 40 48 52 46 44 43 46 49 48 56 56 56
2 4 3 5 2 5 2 5 6 5 26 31 32 32 33 29 23 25 24 18 18 27 33 32 30 29 32 32 32 31 30 31 33 33 38 39 36 39 41 45 48 47 41 58 46 45 47 55 56
2 0 3 3 2 2 3 7 7 13 23 27 31 34 34 27 19 19 12 3 6 12 16 20 22 22 23 24 28 28 28 31 33 36 39 37 38 39 43 41 49 48 47 52 41 44 51 53 57
4 2 2 1 4 5 5 4 7 25 28 27 26 28 30 27 22 13 8 3 5 11 16 19 20 23 25 26 28 28 27 30 32 32 32 37 41 43 45 43 47 51 51 52 53 56 57 51 55
3 3 3 3 3 2 5 5 10 21 21 20 23 33 31 28 19 11 4 3 6 7 10 14 15 18 21 21 21 24 28 29 30 33 34 36 40 42 42 43 44 50 50 46 55 58 60 52 53
4 3 3 3 4 3 3 5 13 21 19 23 30 35 33 27 11 12 8 4 7 8 9 10 11 15 18 22 26 28 32 34 34 29 26 33 40 43 47 43 35 55 52 56 59 56 56 50 52
Wind_Direction
144 149 144 141 75 60 262 247 257 198 193 217 267 202 223 102 162 199 347 20 187 179 158 170 179 178 183 182 189 188 189 190 192 191 187 184 181 182 180 173 162 159 152 147 151 145 145 150 144
149 154 144 110 101 126 249 239 212 179 294 316 179 191 154 266 95 70 50 100 120 140 151 169 182 188 190 189 193 192 193 195 199 200 194 190 185 183 182 167 158 157 153 149 146 151 153 153 149
157 160 116 109 137 192 205 210 198 285 334 12 106 84 110 75 89 76 49 108 138 141 151 164 184 188 192 197 204 201 200 200 200 200 190 187 186 182 166 155 146 151 150 152 152 154 152 150 150
148 156 61 106 211 255 188 184 319 339 33 26 25 79 100 111 106 105 68 72 116 163 183 178 185 191 194 197 200 206 207 203 201 196 191 189 187 181 166 158 159 155 156 160 161 163 157 156 154
159 128 74 36 273 282 266 229 304 328 335 347 5 106 88 112 119 103 90 70 72 128 194 204 203 200 200 204 205 208 200 203 199 198 194 194 189 179 168 162 158 156 163 165 169 168 162 161 156
99 89 89 210 237 262 275 245 257 37 354 343 24 118 113 137 136 122 94 67 68 69 75 191 208 214 212 212 210 211 209 206 201 201 200 198 192 187 178 174 169 166 169 177 181 178 170 167 161
101 85 186 175 277 298 242 180 95 133 329 8 338 110 124 166 152 133 111 108 87 84 91 91 175 223 223 225 222 219 216 216 211 208 204 201 196 193 185 182 180 179 177 183 187 185 181 176 170
100 87 116 228 214 265 356 24 60 49 353 350 13 156 169 157 179 208 189 195 213 238 185 182 148 96 226 242 243 230 222 214 216 215 210 205 201 198 193 189 186 186 186 189 187 194 190 187 179
113 69 179 225 169 254 31 28 340 333 296 295 296 184 156 193 228 233 228 232 224 236 251 253 243 238 238 216 240 239 245 222 215 215 219 215 209 204 199 197 192 191 190 192 193 195 198 195 187
113 143 205 216 228 293 307 293 320 311 289 281 285 261 263 260 274 272 267 265 266 251 243 253 263 263 255 256 259 252 248 227 221 215 216 218 216 213 208 205 202 197 195 195 199 195 201 203 192
129 187 218 275 278 312 306 306 294 250 255 249 264 276 274 276 278 272 268 267 272 275 269 259 255 260 268 267 261 263 254 249 231 225 218 219 221 218 214 206 206 203 198 197 200 198 203 205 199
281 225 238 283 313 315 291 290 266 258 254 264 269 275 279 276 269 269 270 269 268 270 273 271 269 264 261 267 271 266 260 252 244 232 227 222 217 219 216 209 207 208 205 202 203 202 204 203 199
187 285 304 289 301 287 284 265 263 262 270 272 275 271 267 268 269 270 270 270 270 270 269 271 269 267 268 266 265 268 267 257 243 236 228 229 223 218 217 212 210 210 210 208 205 205 205 203 198
316 293 290 294 284 278 268 270 262 240 269 264 260 262 264 269 272 272 269 271 271 269 265 266 266 264 262 265 266 260 259 256 244 232 229 230 231 222 218 215 214 214 211 208 209 211 208 205 199
308 310 322 288 354 291 322 275 236 269 274 268 264 267 270 270 272 269 269 268 267 267 266 262 261 261 256 256 259 260 257 253 244 231 225 224 231 232 221 218 218 217 212 207 207 209 210 207 203
351 50 357 317 349 315 61 276 282 300 282 276 279 275 271 268 267 269 269 266 265 263 260 256 254 253 249 248 252 255 259 257 248 233 225 224 230 234 225 222 221 222 213 208 207 207 206 208 208
11 293 311 320 334 292 203 282 133 323 300 288 283 276 271 270 269 270 267 268 263 261 252 252 252 249 238 237 239 246 255 256 247 240 231 227 224 237 229 222 224 223 216 210 207 208 208 207 209
295 313 274 262 292 297 283 276 279 282 276 269 269 267 268 268 269 273 270 264 260 257 247 247 243 239 233 236 238 243 241 242 241 241 235 228 227 229 230 227 226 223 216 209 208 208 208 209 209
269 212 262 275 275 286 261 272 285 294 277 269 269 269 269 269 276 271 272 271 264 253 248 246 236 240 239 230 228 231 236 237 237 239 239 233 227 224 231 218 222 224 219 210 208 208 209 205 206
260 291 287 291 270 230 279 277 283 285 268 266 268 275 270 272 280 282 274 273 268 260 247 245 243 241 246 244 237 236 237 238 239 243 244 239 231 229 229 227 226 223 217 212 212 209 207 206 205
248 230 255 254 321 248 289 279 285 268 260 287 293 291 292 288 291 295 285 272 268 261 249 243 244 242 244 249 244 239 233 237 236 239 241 239 235 229 232 224 218 222 210 212 218 214 211 206 203
280 223 245 264 326 309 54 295 242 280 293 256 286 294 292 292 293 293 283 269 261 257 253 241 240 240 240 242 242 236 234 237 239 241 244 245 234 219 221 218 211 205 211 212 218 217 215 212 207
243 214 249 264 274 312 316 243 281 312 323 318 304 312 299 286 286 294 280 266 263 254 248 239 232 233 234 238 239 238 242 241 243 248 251 251 244 217 215 222 211 222 219 220 222 219 216 215 214
296 341 31 32 26 264 219 159 275 297 299 319 322 314 303 299 308 300 289 278 254 247 241 239 233 229 229 233 234 234 241 238 237 244 248 251 245 226 221 236 225 220 220 219 225 227 218 217 216
38 37 341 342 5 234 284 57 259 297 308 324 312 306 306 298 302 303 296 284 259 243 232 233 228 219 219 226 227 231 236 234 237 244 250 253 245 236 226 231 239 237 234 231 226 230 227 218 218
320 137 153 269 296 290 357 238 259 260 331 326 318 316 316 303 304 308 304 294 258 239 232 226 217 222 214 221 220 227 234 232 237 246 251 250 241 241 236 231 237 237 224 223 223 235 235 218 220
303 243 187 250 153 326 244 283 286 328 328 332 330 327 321 313 302 312 309 274 182 180 192 200 201 204 214 222 227 233 234 234 241 251 248 242 241 243 239 236 237 232 232 227 231 241 240 224 222
232 336 265 313 315 309 275 262 303 338 335 331 332 324 321 319 299 308 325 185 149 165 178 183 193 200 210 223 230 231 232 239 250 253 249 246 252 240 243 240 233 232 229 229 234 240 239 230 224
319 297 244 227 204 292 311 295 2 336 329 325 330 331 330 322 293 279 295 211 175 175 191 198 206 218 221 215 217 224 234 242 248 256 259 251 245 248 241 239 229 225 221 230 232 227 236 225 225
203 268 290 291 314 261 247 284 15 342 337 340 342 343 349 6 339 288 276 205 155 169 183 182 197 216 216 222 231 240 245 250 249 240 236 242 262 244 237 229 208 210 211 214 221 219 224 218 223